Year,Month,Day,Hour,Minute,Value (Times are PST for windgust in km/hr)
2017,05,14,00,00,4.80
2017,05,14,00,01,6.40
2017,05,14,00,02,8.10
2017,05,14,00,03,4.80
2017,05,14,00,04,6.40
2017,05,14,00,05,6.40
2017,05,14,00,06,6.40
2017,05,14,00,07,4.80
2017,05,14,00,08,4.80
2017,05,14,00,09,4.80
2017,05,14,00,10,3.20
2017,05,14,00,11,8.10
2017,05,14,00,12,4.80
2017,05,14,00,13,4.80
2017,05,14,00,14,4.80
2017,05,14,00,15,3.20
2017,05,14,00,16,3.20
2017,05,14,00,17,3.20
2017,05,14,00,18,6.40
2017,05,14,00,19,6.40
2017,05,14,00,20,4.80
2017,05,14,00,21,6.40
2017,05,14,00,22,3.20
2017,05,14,00,23,3.20
2017,05,14,00,24,1.60
2017,05,14,00,26,1.60
2017,05,14,00,27,3.20
2017,05,14,00,28,3.20
2017,05,14,00,29,3.20
2017,05,14,00,30,3.20
2017,05,14,00,31,1.60
2017,05,14,00,32,4.80
2017,05,14,00,33,6.40
2017,05,14,00,34,6.40
2017,05,14,00,35,4.80
2017,05,14,00,36,4.80
2017,05,14,00,37,6.40
2017,05,14,00,38,6.40
2017,05,14,00,39,8.10
2017,05,14,00,40,4.80
2017,05,14,00,41,4.80
2017,05,14,00,42,8.10
2017,05,14,00,43,6.40
2017,05,14,00,44,6.40
2017,05,14,00,45,6.40
2017,05,14,00,46,6.40
2017,05,14,00,47,4.80
2017,05,14,00,48,4.80
2017,05,14,00,49,4.80
2017,05,14,00,50,4.80
2017,05,14,00,51,1.60
2017,05,14,00,52,3.20
2017,05,14,00,53,3.20
2017,05,14,00,54,1.60
2017,05,14,00,56,1.60
2017,05,14,00,59,3.20
2017,05,14,01,00,4.80
2017,05,14,01,01,4.80
2017,05,14,01,02,6.40
2017,05,14,01,03,4.80
2017,05,14,01,04,6.40
2017,05,14,01,05,6.40
2017,05,14,01,06,4.80
2017,05,14,01,07,4.80
2017,05,14,01,08,4.80
2017,05,14,01,09,4.80
2017,05,14,01,10,4.80
2017,05,14,01,11,4.80
2017,05,14,01,12,4.80
2017,05,14,01,13,4.80
2017,05,14,01,14,6.40
2017,05,14,01,15,4.80
2017,05,14,01,16,4.80
2017,05,14,01,17,3.20
2017,05,14,01,18,6.40
2017,05,14,01,19,4.80
2017,05,14,01,20,4.80
2017,05,14,01,21,4.80
2017,05,14,01,22,6.40
2017,05,14,01,23,4.80
2017,05,14,01,24,6.40
2017,05,14,01,25,6.40
2017,05,14,01,26,6.40
2017,05,14,01,27,6.40
2017,05,14,01,28,3.20
2017,05,14,01,29,3.20
2017,05,14,01,30,3.20
2017,05,14,01,31,3.20
2017,05,14,01,32,3.20
2017,05,14,01,33,3.20
2017,05,14,01,34,3.20
2017,05,14,01,35,4.80
2017,05,14,01,36,3.20
2017,05,14,01,37,6.40
2017,05,14,01,38,4.80
2017,05,14,01,39,3.20
2017,05,14,01,40,1.60
2017,05,14,01,41,4.80
2017,05,14,01,42,4.80
2017,05,14,01,43,1.60
2017,05,14,01,44,8.10
2017,05,14,01,45,4.80
2017,05,14,01,46,4.80
2017,05,14,01,47,8.10
2017,05,14,01,48,3.20
2017,05,14,01,49,4.80
2017,05,14,01,50,3.20
2017,05,14,01,51,3.20
2017,05,14,01,52,4.80
2017,05,14,01,53,4.80
2017,05,14,01,54,4.80
2017,05,14,01,55,4.80
2017,05,14,01,56,6.40
2017,05,14,01,57,3.20
2017,05,14,01,58,4.80
2017,05,14,01,59,3.20
2017,05,14,02,00,4.80
2017,05,14,02,01,6.40
2017,05,14,02,02,4.80
2017,05,14,02,03,3.20
2017,05,14,02,04,3.20
2017,05,14,02,05,3.20
2017,05,14,02,06,3.20
2017,05,14,02,07,4.80
2017,05,14,02,08,3.20
2017,05,14,02,09,3.20
2017,05,14,02,10,3.20
2017,05,14,02,11,4.80
2017,05,14,02,12,3.20
2017,05,14,02,13,3.20
2017,05,14,02,14,3.20
2017,05,14,02,15,3.20
2017,05,14,02,16,3.20
2017,05,14,02,17,3.20
2017,05,14,02,18,4.80
2017,05,14,02,19,3.20
2017,05,14,02,20,3.20
2017,05,14,02,21,1.60
2017,05,14,02,22,3.20
2017,05,14,02,23,1.60
2017,05,14,02,24,1.60
2017,05,14,02,25,3.20
2017,05,14,02,26,4.80
2017,05,14,02,27,3.20
2017,05,14,02,28,4.80
2017,05,14,02,29,1.60
2017,05,14,02,30,3.20
2017,05,14,02,31,3.20
2017,05,14,02,32,3.20
2017,05,14,02,33,1.60
2017,05,14,02,34,4.80
2017,05,14,02,35,3.20
2017,05,14,02,36,3.20
2017,05,14,02,37,1.60
2017,05,14,02,39,1.60
2017,05,14,02,48,1.60
2017,05,14,02,51,1.60
2017,05,14,02,52,3.20
2017,05,14,02,53,1.60
2017,05,14,02,54,1.60
2017,05,14,02,55,1.60
2017,05,14,02,57,3.20
2017,05,14,02,58,3.20
2017,05,14,02,59,4.80
2017,05,14,03,00,4.80
2017,05,14,03,01,4.80
2017,05,14,03,02,4.80
2017,05,14,03,03,4.80
2017,05,14,03,04,3.20
2017,05,14,03,05,8.10
2017,05,14,03,06,11.30
2017,05,14,03,07,4.80
2017,05,14,03,08,6.40
2017,05,14,03,09,9.60
2017,05,14,03,10,9.60
2017,05,14,03,11,6.40
2017,05,14,03,12,6.40
2017,05,14,03,13,6.40
2017,05,14,03,14,8.10
2017,05,14,03,15,6.40
2017,05,14,03,16,8.10
2017,05,14,03,17,9.60
2017,05,14,03,18,4.80
2017,05,14,03,19,12.90
2017,05,14,03,20,12.90
2017,05,14,03,21,9.60
2017,05,14,03,22,6.40
2017,05,14,03,23,4.80
2017,05,14,03,24,6.40
2017,05,14,03,25,4.80
2017,05,14,03,26,4.80
2017,05,14,03,27,6.40
2017,05,14,03,28,9.60
2017,05,14,03,29,4.80
2017,05,14,03,30,4.80
2017,05,14,03,31,4.80
2017,05,14,03,32,3.20
2017,05,14,03,33,4.80
2017,05,14,03,34,4.80
2017,05,14,03,35,3.20
2017,05,14,03,36,3.20
2017,05,14,03,37,6.40
2017,05,14,03,38,4.80
2017,05,14,03,39,4.80
2017,05,14,03,40,3.20
2017,05,14,03,41,6.40
2017,05,14,03,42,6.40
2017,05,14,03,43,4.80
2017,05,14,03,44,4.80
2017,05,14,03,45,4.80
2017,05,14,03,46,4.80
2017,05,14,03,47,4.80
2017,05,14,03,48,4.80
2017,05,14,03,49,4.80
2017,05,14,03,50,3.20
2017,05,14,03,51,4.80
2017,05,14,03,52,1.60
2017,05,14,03,53,3.20
2017,05,14,03,54,4.80
2017,05,14,03,55,1.60
2017,05,14,03,56,3.20
2017,05,14,03,57,3.20
2017,05,14,03,58,3.20
2017,05,14,03,59,3.20
2017,05,14,04,00,1.60
2017,05,14,04,01,1.60
2017,05,14,04,11,3.20
2017,05,14,04,12,4.80
2017,05,14,04,13,1.60
2017,05,14,04,14,3.20
2017,05,14,04,16,1.60
2017,05,14,04,19,4.80
2017,05,14,04,20,4.80
2017,05,14,04,21,4.80
2017,05,14,04,22,1.60
2017,05,14,04,23,3.20
2017,05,14,04,24,1.60
2017,05,14,04,25,1.60
2017,05,14,04,26,3.20
2017,05,14,04,27,4.80
2017,05,14,04,28,1.60
2017,05,14,04,29,4.80
2017,05,14,04,30,3.20
2017,05,14,04,31,3.20
2017,05,14,04,45,6.40
2017,05,14,04,46,4.80
2017,05,14,04,47,1.60
2017,05,14,04,56,3.20
2017,05,14,04,57,4.80
2017,05,14,04,58,1.60
2017,05,14,05,30,8.10
2017,05,14,05,31,4.80
2017,05,14,05,32,3.20
2017,05,14,05,33,1.60
2017,05,14,05,34,1.60
2017,05,14,05,35,3.20
2017,05,14,05,36,3.20
2017,05,14,05,37,4.80
2017,05,14,05,38,3.20
2017,05,14,05,39,3.20
2017,05,14,05,40,6.40
2017,05,14,05,41,3.20
2017,05,14,05,42,1.60
2017,05,14,05,43,6.40
2017,05,14,05,44,3.20
2017,05,14,05,45,6.40
2017,05,14,05,46,3.20
2017,05,14,05,47,1.60
2017,05,14,05,48,1.60
2017,05,14,05,49,11.30
2017,05,14,05,50,8.10
2017,05,14,05,51,6.40
2017,05,14,05,52,3.20
2017,05,14,05,53,4.80
2017,05,14,05,54,3.20
2017,05,14,05,55,3.20
2017,05,14,05,56,3.20
2017,05,14,05,57,1.60
2017,05,14,05,58,3.20
2017,05,14,05,59,4.80
2017,05,14,06,00,4.80
2017,05,14,06,01,4.80
2017,05,14,06,02,3.20
2017,05,14,06,03,3.20
2017,05,14,06,04,1.60
2017,05,14,06,05,1.60
2017,05,14,06,06,6.40
2017,05,14,06,07,3.20
2017,05,14,06,08,1.60
2017,05,14,06,09,1.60
2017,05,14,06,12,3.20
2017,05,14,06,13,1.60
2017,05,14,06,14,3.20
2017,05,14,06,15,3.20
2017,05,14,06,16,3.20
2017,05,14,06,17,4.80
2017,05,14,06,18,3.20
2017,05,14,06,19,1.60
2017,05,14,06,20,1.60
2017,05,14,06,21,1.60
2017,05,14,06,22,3.20
2017,05,14,06,23,3.20
2017,05,14,06,24,1.60
2017,05,14,06,26,1.60
2017,05,14,06,29,3.20
2017,05,14,06,30,1.60
2017,05,14,07,12,3.20
2017,05,14,07,13,3.20
2017,05,14,07,14,3.20
2017,05,14,07,15,3.20
2017,05,14,07,16,3.20
2017,05,14,07,17,1.60
2017,05,14,07,18,3.20
2017,05,14,07,19,3.20
2017,05,14,07,20,3.20
2017,05,14,07,21,4.80
2017,05,14,07,22,3.20
2017,05,14,07,23,6.40
2017,05,14,07,24,8.10
2017,05,14,07,25,4.80
2017,05,14,07,26,6.40
2017,05,14,07,27,6.40
2017,05,14,07,28,3.20
2017,05,14,07,29,1.60
2017,05,14,07,30,8.10
2017,05,14,07,31,4.80
2017,05,14,07,32,4.80
2017,05,14,07,33,4.80
2017,05,14,07,34,4.80
2017,05,14,07,35,4.80
2017,05,14,07,36,4.80
2017,05,14,07,37,4.80
2017,05,14,07,38,4.80
2017,05,14,07,39,4.80
2017,05,14,07,40,3.20
2017,05,14,07,43,4.80
2017,05,14,07,44,4.80
2017,05,14,07,45,6.40
2017,05,14,07,46,4.80
2017,05,14,07,47,8.10
2017,05,14,07,48,4.80
2017,05,14,07,49,4.80
2017,05,14,07,50,4.80
2017,05,14,07,51,4.80
2017,05,14,07,52,4.80
2017,05,14,07,53,4.80
2017,05,14,07,54,6.40
2017,05,14,07,55,8.10
2017,05,14,07,56,4.80
2017,05,14,07,57,3.20
2017,05,14,07,58,6.40
2017,05,14,07,59,4.80
2017,05,14,08,00,3.20
2017,05,14,08,01,3.20
2017,05,14,08,02,3.20
2017,05,14,08,03,3.20
2017,05,14,08,04,4.80
2017,05,14,08,05,6.40
2017,05,14,08,06,4.80
2017,05,14,08,07,4.80
2017,05,14,08,08,4.80
2017,05,14,08,09,4.80
2017,05,14,08,10,6.40
2017,05,14,08,11,8.10
2017,05,14,08,12,6.40
2017,05,14,08,13,4.80
2017,05,14,08,14,3.20
2017,05,14,08,15,4.80
2017,05,14,08,16,4.80
2017,05,14,08,17,1.60
2017,05,14,08,18,1.60
2017,05,14,08,19,1.60
2017,05,14,08,20,1.60
2017,05,14,08,21,1.60
2017,05,14,08,22,3.20
2017,05,14,08,23,3.20
2017,05,14,08,24,3.20
2017,05,14,08,25,3.20
2017,05,14,08,27,4.80
2017,05,14,08,28,8.10
2017,05,14,08,29,4.80
2017,05,14,08,30,1.60
2017,05,14,08,31,1.60
2017,05,14,08,32,1.60
2017,05,14,08,33,3.20
2017,05,14,08,34,4.80
2017,05,14,08,35,4.80
2017,05,14,08,36,4.80
2017,05,14,08,37,6.40
2017,05,14,08,38,6.40
2017,05,14,08,39,4.80
2017,05,14,08,40,6.40
2017,05,14,08,41,6.40
2017,05,14,08,42,3.20
2017,05,14,08,43,1.60
2017,05,14,08,44,4.80
2017,05,14,08,45,4.80
2017,05,14,08,46,3.20
2017,05,14,08,47,4.80
2017,05,14,08,48,4.80
2017,05,14,08,49,8.10
2017,05,14,08,50,6.40
2017,05,14,08,51,6.40
2017,05,14,08,52,6.40
2017,05,14,08,53,4.80
2017,05,14,08,54,3.20
2017,05,14,08,55,1.60
2017,05,14,08,56,3.20
2017,05,14,08,57,3.20
2017,05,14,08,58,3.20
2017,05,14,08,59,8.10
2017,05,14,09,00,4.80
2017,05,14,09,01,6.40
2017,05,14,09,02,8.10
2017,05,14,09,03,4.80
2017,05,14,09,04,6.40
2017,05,14,09,05,6.40
2017,05,14,09,06,3.20
2017,05,14,09,07,6.40
2017,05,14,09,08,4.80
2017,05,14,09,09,6.40
2017,05,14,09,10,4.80
2017,05,14,09,11,3.20
2017,05,14,09,12,4.80
2017,05,14,09,13,4.80
2017,05,14,09,14,4.80
2017,05,14,09,15,4.80
2017,05,14,09,16,6.40
2017,05,14,09,17,8.10
2017,05,14,09,18,4.80
2017,05,14,09,19,3.20
2017,05,14,09,20,1.60
2017,05,14,09,21,6.40
2017,05,14,09,22,6.40
2017,05,14,09,23,4.80
2017,05,14,09,24,4.80
2017,05,14,09,25,6.40
2017,05,14,09,26,4.80
2017,05,14,09,27,1.60
2017,05,14,09,29,6.40
2017,05,14,09,30,6.40
2017,05,14,09,31,3.20
2017,05,14,09,32,3.20
2017,05,14,09,33,4.80
2017,05,14,09,34,3.20
2017,05,14,09,35,1.60
2017,05,14,09,36,1.60
2017,05,14,09,37,3.20
2017,05,14,09,38,3.20
2017,05,14,09,39,3.20
2017,05,14,09,40,3.20
2017,05,14,09,42,4.80
2017,05,14,09,43,9.60
2017,05,14,09,44,6.40
2017,05,14,09,45,8.10
2017,05,14,09,46,12.90
2017,05,14,09,47,9.60
2017,05,14,09,48,6.40
2017,05,14,09,49,9.60
2017,05,14,09,50,9.60
2017,05,14,09,51,8.10
2017,05,14,09,52,11.30
2017,05,14,09,53,11.30
2017,05,14,09,54,12.90
2017,05,14,09,55,8.10
2017,05,14,09,56,6.40
2017,05,14,09,57,6.40
2017,05,14,09,58,4.80
2017,05,14,09,59,4.80
2017,05,14,10,00,8.10
2017,05,14,10,01,8.10
2017,05,14,10,02,11.30
2017,05,14,10,03,8.10
2017,05,14,10,04,4.80
2017,05,14,10,05,4.80
2017,05,14,10,06,6.40
2017,05,14,10,07,11.30
2017,05,14,10,08,6.40
2017,05,14,10,09,14.50
2017,05,14,10,10,11.30
2017,05,14,10,11,8.10
2017,05,14,10,12,11.30
2017,05,14,10,13,11.30
2017,05,14,10,14,6.40
2017,05,14,10,15,3.20
2017,05,14,10,16,11.30
2017,05,14,10,17,9.60
2017,05,14,10,18,11.30
2017,05,14,10,19,4.80
2017,05,14,10,20,8.10
2017,05,14,10,21,9.60
2017,05,14,10,22,9.60
2017,05,14,10,23,11.30
2017,05,14,10,24,9.60
2017,05,14,10,25,8.10
2017,05,14,10,26,11.30
2017,05,14,10,27,6.40
2017,05,14,10,28,12.90
2017,05,14,10,29,11.30
2017,05,14,10,30,11.30
2017,05,14,10,31,12.90
2017,05,14,10,32,6.40
2017,05,14,10,33,9.60
2017,05,14,10,34,11.30
2017,05,14,10,35,12.90
2017,05,14,10,36,6.40
2017,05,14,10,37,6.40
2017,05,14,10,38,3.20
2017,05,14,10,39,3.20
2017,05,14,10,40,9.60
2017,05,14,10,41,8.10
2017,05,14,10,42,6.40
2017,05,14,10,43,6.40
2017,05,14,10,44,4.80
2017,05,14,10,45,4.80
2017,05,14,10,46,3.20
2017,05,14,10,47,6.40
2017,05,14,10,48,6.40
2017,05,14,10,49,3.20
2017,05,14,10,50,3.20
2017,05,14,10,51,3.20
2017,05,14,10,52,1.60
2017,05,14,10,53,4.80
2017,05,14,10,54,4.80
2017,05,14,10,55,8.10
2017,05,14,10,56,4.80
2017,05,14,10,57,6.40
2017,05,14,10,58,9.60
2017,05,14,10,59,11.30
2017,05,14,11,00,8.10
2017,05,14,11,01,8.10
2017,05,14,11,02,8.10
2017,05,14,11,03,11.30
2017,05,14,11,04,9.60
2017,05,14,11,05,12.90
2017,05,14,11,06,9.60
2017,05,14,11,07,4.80
2017,05,14,11,08,11.30
2017,05,14,11,09,6.40
2017,05,14,11,10,6.40
2017,05,14,11,11,6.40
2017,05,14,11,12,11.30
2017,05,14,11,13,9.60
2017,05,14,11,14,12.90
2017,05,14,11,15,11.30
2017,05,14,11,16,12.90
2017,05,14,11,17,11.30
2017,05,14,11,18,6.40
2017,05,14,11,19,11.30
2017,05,14,11,20,4.80
2017,05,14,11,21,4.80
2017,05,14,11,22,4.80
2017,05,14,11,23,9.60
2017,05,14,11,24,6.40
2017,05,14,11,25,6.40
2017,05,14,11,26,4.80
2017,05,14,11,27,8.10
2017,05,14,11,28,8.10
2017,05,14,11,29,9.60
2017,05,14,11,30,3.20
2017,05,14,11,31,3.20
2017,05,14,11,32,6.40
2017,05,14,11,33,4.80
2017,05,14,11,34,8.10
2017,05,14,11,35,9.60
2017,05,14,11,36,3.20
2017,05,14,11,37,3.20
2017,05,14,11,38,12.90
2017,05,14,11,39,9.60
2017,05,14,11,40,11.30
2017,05,14,11,41,8.10
2017,05,14,11,42,9.60
2017,05,14,11,43,4.80
2017,05,14,11,44,4.80
2017,05,14,11,45,8.10
2017,05,14,11,46,4.80
2017,05,14,11,47,6.40
2017,05,14,11,48,8.10
2017,05,14,11,49,3.20
2017,05,14,11,50,4.80
2017,05,14,11,51,8.10
2017,05,14,11,52,6.40
2017,05,14,11,53,6.40
2017,05,14,11,54,6.40
2017,05,14,11,55,6.40
2017,05,14,11,56,6.40
2017,05,14,11,57,8.10
2017,05,14,11,58,3.20
2017,05,14,11,59,3.20
2017,05,14,12,00,1.60
2017,05,14,12,01,1.60
2017,05,14,12,02,3.20
2017,05,14,12,03,3.20
2017,05,14,12,04,9.60
2017,05,14,12,05,8.10
2017,05,14,12,06,8.10
2017,05,14,12,07,6.40
2017,05,14,12,08,6.40
2017,05,14,12,09,11.30
2017,05,14,12,10,11.30
2017,05,14,12,11,14.50
2017,05,14,12,12,9.60
2017,05,14,12,13,14.50
2017,05,14,12,14,16.10
2017,05,14,12,15,12.90
2017,05,14,12,16,17.70
2017,05,14,12,17,6.40
2017,05,14,12,18,4.80
2017,05,14,12,19,11.30
2017,05,14,12,20,14.50
2017,05,14,12,21,16.10
2017,05,14,12,22,8.10
2017,05,14,12,23,9.60
2017,05,14,12,24,8.10
2017,05,14,12,25,6.40
2017,05,14,12,26,9.60
2017,05,14,12,27,3.20
2017,05,14,12,28,9.60
2017,05,14,12,29,14.50
2017,05,14,12,30,14.50
2017,05,14,12,31,11.30
2017,05,14,12,32,12.90
2017,05,14,12,33,12.90
2017,05,14,12,34,12.90
2017,05,14,12,35,9.60
2017,05,14,12,36,9.60
2017,05,14,12,37,11.30
2017,05,14,12,38,6.40
2017,05,14,12,39,6.40
2017,05,14,12,40,6.40
2017,05,14,12,41,11.30
2017,05,14,12,42,11.30
2017,05,14,12,43,6.40
2017,05,14,12,44,9.60
2017,05,14,12,45,8.10
2017,05,14,12,46,8.10
2017,05,14,12,47,6.40
2017,05,14,12,48,3.20
2017,05,14,12,49,4.80
2017,05,14,12,50,8.10
2017,05,14,12,51,8.10
2017,05,14,12,52,9.60
2017,05,14,12,53,12.90
2017,05,14,12,54,11.30
2017,05,14,12,55,12.90
2017,05,14,12,56,12.90
2017,05,14,12,57,12.90
2017,05,14,12,58,12.90
2017,05,14,12,59,16.10
2017,05,14,13,00,11.30
2017,05,14,13,01,11.30
2017,05,14,13,02,17.70
2017,05,14,13,03,9.60
2017,05,14,13,04,11.30
2017,05,14,13,05,12.90
2017,05,14,13,06,14.50
2017,05,14,13,07,14.50
2017,05,14,13,08,11.30
2017,05,14,13,09,12.90
2017,05,14,13,10,8.10
2017,05,14,13,11,8.10
2017,05,14,13,12,6.40
2017,05,14,13,13,11.30
2017,05,14,13,14,14.50
2017,05,14,13,15,12.90
2017,05,14,13,16,11.30
2017,05,14,13,17,14.50
2017,05,14,13,18,14.50
2017,05,14,13,19,8.10
2017,05,14,13,20,12.90
2017,05,14,13,21,12.90
2017,05,14,13,22,12.90
2017,05,14,13,23,14.50
2017,05,14,13,24,16.10
2017,05,14,13,25,9.60
2017,05,14,13,26,9.60
2017,05,14,13,27,14.50
2017,05,14,13,28,12.90
2017,05,14,13,29,19.30
2017,05,14,13,30,17.70
2017,05,14,13,31,11.30
2017,05,14,13,32,9.60
2017,05,14,13,33,9.60
2017,05,14,13,34,12.90
2017,05,14,13,35,6.40
2017,05,14,13,36,12.90
2017,05,14,13,37,9.60
2017,05,14,13,38,12.90
2017,05,14,13,39,12.90
2017,05,14,13,40,9.60
2017,05,14,13,41,9.60
2017,05,14,13,42,17.70
2017,05,14,13,43,12.90
2017,05,14,13,44,11.30
2017,05,14,13,45,11.30
2017,05,14,13,46,12.90
2017,05,14,13,47,8.10
2017,05,14,13,48,14.50
2017,05,14,13,49,16.10
2017,05,14,13,50,16.10
2017,05,14,13,51,12.90
2017,05,14,13,52,11.30
2017,05,14,13,53,17.70
2017,05,14,13,54,17.70
2017,05,14,13,55,17.70
2017,05,14,13,56,9.60
2017,05,14,13,57,11.30
2017,05,14,13,58,14.50
2017,05,14,13,59,12.90
2017,05,14,14,00,11.30
2017,05,14,14,01,11.30
2017,05,14,14,02,9.60
2017,05,14,14,03,6.40
2017,05,14,14,04,16.10
2017,05,14,14,05,12.90
2017,05,14,14,06,8.10
2017,05,14,14,07,12.90
2017,05,14,14,08,12.90
2017,05,14,14,09,14.50
2017,05,14,14,10,12.90
2017,05,14,14,11,12.90
2017,05,14,14,12,9.60
2017,05,14,14,13,12.90
2017,05,14,14,14,12.90
2017,05,14,14,15,11.30
2017,05,14,14,16,4.80
2017,05,14,14,17,6.40
2017,05,14,14,18,4.80
2017,05,14,14,19,8.10
2017,05,14,14,20,6.40
2017,05,14,14,21,4.80
2017,05,14,14,22,11.30
2017,05,14,14,23,11.30
2017,05,14,14,24,9.60
2017,05,14,14,25,9.60
2017,05,14,14,26,9.60
2017,05,14,14,27,8.10
2017,05,14,14,28,6.40
2017,05,14,14,29,4.80
2017,05,14,14,30,11.30
2017,05,14,14,31,11.30
2017,05,14,14,32,8.10
2017,05,14,14,33,4.80
2017,05,14,14,34,6.40
2017,05,14,14,35,4.80
2017,05,14,14,36,3.20
2017,05,14,14,37,8.10
2017,05,14,14,38,9.60
2017,05,14,14,39,8.10
2017,05,14,14,40,8.10
2017,05,14,14,41,11.30
2017,05,14,14,42,8.10
2017,05,14,14,43,8.10
2017,05,14,14,44,6.40
2017,05,14,14,45,4.80
2017,05,14,14,46,6.40
2017,05,14,14,47,4.80
2017,05,14,14,48,6.40
2017,05,14,14,49,6.40
2017,05,14,14,50,3.20
2017,05,14,14,51,4.80
2017,05,14,14,52,4.80
2017,05,14,14,53,4.80
2017,05,14,14,54,4.80
2017,05,14,14,55,3.20
2017,05,14,14,56,3.20
2017,05,14,14,57,4.80
2017,05,14,14,58,4.80
2017,05,14,14,59,3.20
2017,05,14,15,02,4.80
2017,05,14,15,03,3.20
2017,05,14,15,04,1.60
2017,05,14,15,05,3.20
2017,05,14,15,06,3.20
2017,05,14,15,07,6.40
2017,05,14,15,08,6.40
2017,05,14,15,09,9.60
2017,05,14,15,10,4.80
2017,05,14,15,11,4.80
2017,05,14,15,12,8.10
2017,05,14,15,13,8.10
2017,05,14,15,14,8.10
2017,05,14,15,15,6.40
2017,05,14,15,16,6.40
2017,05,14,15,17,8.10
2017,05,14,15,18,6.40
2017,05,14,15,19,6.40
2017,05,14,15,20,6.40
2017,05,14,15,21,9.60
2017,05,14,15,22,8.10
2017,05,14,15,23,3.20
2017,05,14,15,24,8.10
2017,05,14,15,25,6.40
2017,05,14,15,26,3.20
2017,05,14,15,27,3.20
2017,05,14,15,28,1.60
2017,05,14,15,29,4.80
2017,05,14,15,30,4.80
2017,05,14,15,31,4.80
2017,05,14,15,32,8.10
2017,05,14,15,33,4.80
2017,05,14,15,34,6.40
2017,05,14,15,35,6.40
2017,05,14,15,36,4.80
2017,05,14,15,37,11.30
2017,05,14,15,38,8.10
2017,05,14,15,39,9.60
2017,05,14,15,40,6.40
2017,05,14,15,41,9.60
2017,05,14,15,42,6.40
2017,05,14,15,43,8.10
2017,05,14,15,44,11.30
2017,05,14,15,45,11.30
2017,05,14,15,46,12.90
2017,05,14,15,47,9.60
2017,05,14,15,48,8.10
2017,05,14,15,49,6.40
2017,05,14,15,50,16.10
2017,05,14,15,51,14.50
2017,05,14,15,52,11.30
2017,05,14,15,53,6.40
2017,05,14,15,54,6.40
2017,05,14,15,55,4.80
2017,05,14,15,56,11.30
2017,05,14,15,57,6.40
2017,05,14,15,58,12.90
2017,05,14,15,59,9.60
2017,05,14,16,00,16.10
2017,05,14,16,01,9.60
2017,05,14,16,02,9.60
2017,05,14,16,03,8.10
2017,05,14,16,04,11.30
2017,05,14,16,05,9.60
2017,05,14,16,06,11.30
2017,05,14,16,07,6.40
2017,05,14,16,08,6.40
2017,05,14,16,09,6.40
2017,05,14,16,10,11.30
2017,05,14,16,11,9.60
2017,05,14,16,12,11.30
2017,05,14,16,13,6.40
2017,05,14,16,14,12.90
2017,05,14,16,15,11.30
2017,05,14,16,16,6.40
2017,05,14,16,17,9.60
2017,05,14,16,18,4.80
2017,05,14,16,19,4.80
2017,05,14,16,20,12.90
2017,05,14,16,21,11.30
2017,05,14,16,22,6.40
2017,05,14,16,23,14.50
2017,05,14,16,24,11.30
2017,05,14,16,25,14.50
2017,05,14,16,26,8.10
2017,05,14,16,27,14.50
2017,05,14,16,28,11.30
2017,05,14,16,29,4.80
2017,05,14,16,30,16.10
2017,05,14,16,31,11.30
2017,05,14,16,32,4.80
2017,05,14,16,33,8.10
2017,05,14,16,34,11.30
2017,05,14,16,35,8.10
2017,05,14,16,36,4.80
2017,05,14,16,37,9.60
2017,05,14,16,38,14.50
2017,05,14,16,39,8.10
2017,05,14,16,40,11.30
2017,05,14,16,41,9.60
2017,05,14,16,42,4.80
2017,05,14,16,43,6.40
2017,05,14,16,44,6.40
2017,05,14,16,45,4.80
2017,05,14,16,46,9.60
2017,05,14,16,47,11.30
2017,05,14,16,48,11.30
2017,05,14,16,49,8.10
2017,05,14,16,50,9.60
2017,05,14,16,51,16.10
2017,05,14,16,52,4.80
2017,05,14,16,53,8.10
2017,05,14,16,54,11.30
2017,05,14,16,55,9.60
2017,05,14,16,56,6.40
2017,05,14,16,57,4.80
2017,05,14,16,58,14.50
2017,05,14,16,59,14.50
2017,05,14,17,00,14.50
2017,05,14,17,01,16.10
2017,05,14,17,02,14.50
2017,05,14,17,03,11.30
2017,05,14,17,04,11.30
2017,05,14,17,05,8.10
2017,05,14,17,06,12.90
2017,05,14,17,07,16.10
2017,05,14,17,08,16.10
2017,05,14,17,09,9.60
2017,05,14,17,10,12.90
2017,05,14,17,11,14.50
2017,05,14,17,12,12.90
2017,05,14,17,13,12.90
2017,05,14,17,14,14.50
2017,05,14,17,15,6.40
2017,05,14,17,16,12.90
2017,05,14,17,17,6.40
2017,05,14,17,18,11.30
2017,05,14,17,19,6.40
2017,05,14,17,20,6.40
2017,05,14,17,21,11.30
2017,05,14,17,22,11.30
2017,05,14,17,23,9.60
2017,05,14,17,24,9.60
2017,05,14,17,25,14.50
2017,05,14,17,26,11.30
2017,05,14,17,27,12.90
2017,05,14,17,28,12.90
2017,05,14,17,29,6.40
2017,05,14,17,30,6.40
2017,05,14,17,31,8.10
2017,05,14,17,32,12.90
2017,05,14,17,33,9.60
2017,05,14,17,34,6.40
2017,05,14,17,35,14.50
2017,05,14,17,36,12.90
2017,05,14,17,37,14.50
2017,05,14,17,38,9.60
2017,05,14,17,39,12.90
2017,05,14,17,40,8.10
2017,05,14,17,41,8.10
2017,05,14,17,42,12.90
2017,05,14,17,43,11.30
2017,05,14,17,44,9.60
2017,05,14,17,45,14.50
2017,05,14,17,46,8.10
2017,05,14,17,47,12.90
2017,05,14,17,48,11.30
2017,05,14,17,49,11.30
2017,05,14,17,50,11.30
2017,05,14,17,51,8.10
2017,05,14,17,52,9.60
2017,05,14,17,53,9.60
2017,05,14,17,54,4.80
2017,05,14,17,55,8.10
2017,05,14,17,56,6.40
2017,05,14,17,57,6.40
2017,05,14,17,58,12.90
2017,05,14,17,59,12.90
2017,05,14,18,00,8.10
2017,05,14,18,01,6.40
2017,05,14,18,02,6.40
2017,05,14,18,03,8.10
2017,05,14,18,04,3.20
2017,05,14,18,05,6.40
2017,05,14,18,06,3.20
2017,05,14,18,07,8.10
2017,05,14,18,08,9.60
2017,05,14,18,09,8.10
2017,05,14,18,10,8.10
2017,05,14,18,11,6.40
2017,05,14,18,12,4.80
2017,05,14,18,13,8.10
2017,05,14,18,14,8.10
2017,05,14,18,15,3.20
2017,05,14,18,16,8.10
2017,05,14,18,17,6.40
2017,05,14,18,18,8.10
2017,05,14,18,19,9.60
2017,05,14,18,20,6.40
2017,05,14,18,21,4.80
2017,05,14,18,22,9.60
2017,05,14,18,23,9.60
2017,05,14,18,24,9.60
2017,05,14,18,25,11.30
2017,05,14,18,26,4.80
2017,05,14,18,27,4.80
2017,05,14,18,28,6.40
2017,05,14,18,29,6.40
2017,05,14,18,30,4.80
2017,05,14,18,31,3.20
2017,05,14,18,32,4.80
2017,05,14,18,33,4.80
2017,05,14,18,34,3.20
2017,05,14,18,35,4.80
2017,05,14,18,36,6.40
2017,05,14,18,37,6.40
2017,05,14,18,38,4.80
2017,05,14,18,39,4.80
2017,05,14,18,40,6.40
2017,05,14,18,41,4.80
2017,05,14,18,42,6.40
2017,05,14,18,43,9.60
2017,05,14,18,44,6.40
2017,05,14,18,45,6.40
2017,05,14,18,46,6.40
2017,05,14,18,47,4.80
2017,05,14,18,48,6.40
2017,05,14,18,49,4.80
2017,05,14,18,50,9.60
2017,05,14,18,51,6.40
2017,05,14,18,52,6.40
2017,05,14,18,53,6.40
2017,05,14,18,54,11.30
2017,05,14,18,55,9.60
2017,05,14,18,56,4.80
2017,05,14,18,57,6.40
2017,05,14,18,58,4.80
2017,05,14,18,59,8.10
2017,05,14,19,00,8.10
2017,05,14,19,01,4.80
2017,05,14,19,02,4.80
2017,05,14,19,03,3.20
2017,05,14,19,04,3.20
2017,05,14,19,05,1.60
2017,05,14,19,06,3.20
2017,05,14,19,07,4.80
2017,05,14,19,08,6.40
2017,05,14,19,09,3.20
2017,05,14,19,10,1.60
2017,05,14,19,11,3.20
2017,05,14,19,12,6.40
2017,05,14,19,13,6.40
2017,05,14,19,14,4.80
2017,05,14,19,15,4.80
2017,05,14,19,16,8.10
2017,05,14,19,17,8.10
2017,05,14,19,18,11.30
2017,05,14,19,19,8.10
2017,05,14,19,20,8.10
2017,05,14,19,21,4.80
2017,05,14,19,22,8.10
2017,05,14,19,23,9.60
2017,05,14,19,24,8.10
2017,05,14,19,25,6.40
2017,05,14,19,26,4.80
2017,05,14,19,27,3.20
2017,05,14,19,28,4.80
2017,05,14,19,29,4.80
2017,05,14,19,30,3.20
2017,05,14,19,31,4.80
2017,05,14,19,32,4.80
2017,05,14,19,33,4.80
2017,05,14,19,34,4.80
2017,05,14,19,35,4.80
2017,05,14,19,36,4.80
2017,05,14,19,37,4.80
2017,05,14,19,38,6.40
2017,05,14,19,39,6.40
2017,05,14,19,40,6.40
2017,05,14,19,41,4.80
2017,05,14,19,42,4.80
2017,05,14,19,43,4.80
2017,05,14,19,44,4.80
2017,05,14,19,45,4.80
2017,05,14,19,46,1.60
2017,05,14,19,47,4.80
2017,05,14,19,48,3.20
2017,05,14,19,49,6.40
2017,05,14,19,50,8.10
2017,05,14,19,51,8.10
2017,05,14,19,52,3.20
2017,05,14,19,53,6.40
2017,05,14,19,54,3.20
2017,05,14,19,55,6.40
2017,05,14,19,56,6.40
2017,05,14,19,57,6.40
2017,05,14,19,58,6.40
2017,05,14,19,59,1.60
2017,05,14,20,00,1.60
2017,05,14,20,01,3.20
2017,05,14,20,02,3.20
2017,05,14,20,03,6.40
2017,05,14,20,04,3.20
2017,05,14,20,05,3.20
2017,05,14,20,06,3.20
2017,05,14,20,07,6.40
2017,05,14,20,08,3.20
2017,05,14,20,09,6.40
2017,05,14,20,10,3.20